Temperature
3 3 3 3 3 2 3 4 5 5 4 4 3 2 1 -0 -1 -1 -1 -2 -2 -2 -2 -2 -2 -2 -2 -2 -3 -3 -3 -3 -3 -3 -3 -3 -3 -3 -4 -4 -4 -4 -5 -5
2 2 2 2 2 2 2 3 3 3 3 2 1 0 -1 -1 -2 -2 -2 -3 -3 -3 -3 -3 -3 -3 -3 -3 -3 -3 -3 -3 -3 -3 -4 -4 -4 -4 -4 -5 -5 -5 -5 -5
3 2 2 2 2 1 1 1 1 2 2 0 -0 -1 -1 -2 -3 -3 -3 -3 -3 -3 -3 -3 -3 -3 -3 -3 -4 -4 -4 -4 -4 -4 -4 -4 -5 -5 -5 -5 -5 -5 -6 -6
2 2 2 3 0 0 0 -1 -1 -1 -1 -1 -1 -2 -3 -3 -3 -3 -3 -3 -4 -4 -4 -4 -4 -4 -4 -4 -4 -4 -4 -4 -4 -5 -5 -5 -5 -5 -6 -6 -6 -6 -6 -6
1 2 3 2 -1 -1 -1 -1 -2 -2 -2 -3 -3 -3 -3 -3 -3 -4 -4 -4 -4 -4 -4 -4 -4 -4 -4 -5 -5 -5 -5 -5 -5 -5 -5 -6 -6 -6 -6 -6 -7 -7 -7 -7
1 2 2 2 -2 -3 -1 0 -2 -3 -3 -3 -3 -1 -1 -4 -4 -4 -4 -4 -5 -5 -5 -5 -5 -5 -5 -5 -5 -5 -5 -6 -6 -6 -6 -6 -6 -7 -7 -7 -7 -7 -7 -7
-0 1 1 -1 -4 -3 0 0 -3 -4 -4 -4 -4 -3 -4 -5 -5 -5 -5 -5 -5 -5 -6 -6 -6 -6 -6 -6 -6 -6 -6 -6 -6 -7 -7 -7 -7 -7 -7 -8 -8 -8 -8 -8
-1 -0 -0 -3 -4 -2 -2 -3 -4 -4 -4 -5 -5 -5 -6 -6 -6 -6 -6 -6 -6 -6 -6 -6 -6 -6 -6 -6 -6 -7 -7 -7 -7 -7 -7 -8 -8 -8 -8 -8 -8 -9 -9 -9
-2 -1 -3 -5 -4 -4 -5 -5 -5 -5 -5 -5 -6 -6 -7 -7 -7 -7 -7 -7 -7 -7 -7 -7 -7 -7 -7 -7 -7 -7 -7 -7 -7 -8 -8 -8 -8 -9 -9 -9 -9 -9 -9 -9
-4 -4 -5 -5 -5 -5 -5 -5 -6 -6 -6 -6 -6 -7 -7 -7 -7 -8 -8 -7 -7 -8 -8 -8 -8 -8 -8 -8 -8 -8 -8 -8 -8 -8 -9 -9 -9 -9 -9 -9 -10 -10 -10 -10
-4 -4 -6 -6 -6 -6 -6 -6 -6 -7 -7 -7 -7 -8 -8 -8 -8 -8 -8 -8 -8 -8 -8 -8 -8 -8 -8 -9 -9 -9 -9 -9 -9 -9 -9 -9 -10 -10 -10 -10 -10 -10 -10 -10
-4 -5 -6 -6 -6 -6 -7 -7 -7 -7 -7 -8 -8 -8 -8 -8 -8 -9 -9 -9 -9 -9 -9 -9 -9 -9 -9 -9 -9 -9 -9 -10 -10 -10 -10 -10 -10 -10 -10 -10 -10 -11 -11 -11
-7 -7 -7 -7 -7 -7 -7 -8 -8 -8 -8 -8 -8 -9 -9 -9 -9 -9 -9 -9 -9 -9 -9 -10 -10 -10 -10 -10 -10 -10 -10 -10 -10 -11 -11 -11 -11 -11 -11 -11 -11 -11 -11 -11
-7 -8 -8 -8 -8 -8 -8 -8 -9 -9 -9 -9 -9 -9 -9 -9 -9 -10 -10 -10 -10 -10 -10 -10 -10 -10 -11 -11 -11 -11 -11 -11 -11 -11 -11 -11 -11 -12 -12 -12 -12 -12 -12 -12
-8 -8 -8 -9 -9 -9 -9 -9 -9 -10 -10 -10 -10 -10 -10 -10 -10 -10 -11 -11 -11 -11 -11 -11 -11 -11 -11 -11 -11 -11 -11 -11 -12 -12 -12 -12 -12 -12 -12 -12 -12 -12 -12 -12
-9 -9 -9 -9 -10 -10 -10 -10 -10 -10 -10 -10 -10 -10 -11 -11 -11 -11 -11 -11 -11 -11 -11 -12 -12 -12 -12 -12 -12 -12 -12 -12 -12 -12 -13 -13 -13 -13 -13 -13 -13 -13 -13 -13
-10 -10 -11 -10 -10 -10 -10 -10 -11 -11 -11 -11 -11 -11 -11 -11 -11 -11 -12 -12 -12 -12 -12 -12 -12 -12 -12 -12 -12 -13 -13 -13 -13 -13 -13 -13 -13 -13 -13 -13 -13 -13 -13 -13
-10 -10 -10 -10 -10 -11 -11 -11 -11 -11 -11 -11 -11 -11 -12 -12 -12 -12 -12 -12 -12 -12 -12 -12 -13 -13 -13 -13 -13 -13 -13 -13 -13 -14 -14 -14 -14 -14 -14 -14 -14 -14 -14 -14
-10 -10 -11 -11 -11 -11 -11 -11 -11 -11 -11 -12 -12 -12 -12 -12 -12 -13 -13 -13 -13 -13 -13 -13 -13 -13 -13 -13 -13 -14 -14 -14 -14 -14 -14 -14 -14 -14 -14 -14 -14 -14 -14 -14
-11 -11 -11 -11 -11 -11 -12 -12 -12 -12 -12 -12 -12 -12 -13 -13 -13 -13 -13 -13 -13 -13 -13 -13 -13 -14 -14 -14 -14 -14 -14 -14 -14 -15 -15 -15 -15 -15 -15 -15 -15 -15 -15 -15
-11 -11 -11 -12 -12 -12 -12 -12 -12 -12 -12 -12 -13 -13 -13 -13 -13 -13 -13 -13 -13 -14 -14 -14 -14 -14 -14 -14 -14 -15 -15 -15 -15 -15 -15 -15 -15 -15 -15 -15 -15 -15 -15 -15
-11 -12 -12 -12 -12 -12 -12 -13 -13 -13 -13 -13 -13 -13 -13 -13 -13 -13 -14 -14 -14 -14 -14 -14 -14 -14 -15 -15 -15 -15 -15 -15 -15 -15 -15 -15 -16 -16 -16 -16 -16 -16 -16 -16
-12 -12 -12 -12 -12 -13 -13 -13 -13 -13 -13 -13 -13 -13 -13 -13 -14 -14 -14 -14 -14 -14 -14 -14 -15 -15 -15 -15 -15 -15 -15 -15 -15 -16 -16 -16 -16 -16 -16 -16 -16 -16 -16 -16
-12 -12 -12 -13 -13 -13 -13 -13 -13 -13 -13 -13 -14 -14 -14 -14 -14 -14 -14 -14 -14 -15 -15 -15 -15 -15 -15 -15 -15 -15 -15 -16 -16 -16 -16 -16 -16 -16 -16 -16 -16 -16 -16 -16
-12 -13 -13 -13 -13 -13 -13 -13 -13 -13 -13 -14 -14 -14 -14 -14 -14 -14 -14 -15 -15 -15 -15 -15 -15 -15 -15 -15 -15 -15 -16 -16 -16 -16 -16 -16 -16 -16 -16 -16 -16 -16 -16 -16
-13 -13 -13 -13 -14 -14 -14 -14 -14 -14 -14 -14 -14 -14 -15 -15 -15 -15 -15 -15 -15 -15 -15 -15 -15 -15 -15 -16 -16 -16 -16 -16 -16 -16 -16 -16 -16 -16 -17 -17 -17 -17 -17 -16
-13 -13 -14 -14 -14 -14 -14 -14 -14 -14 -14 -15 -14 -15 -15 -15 -15 -15 -15 -15 -15 -15 -15 -15 -15 -15 -16 -16 -16 -16 -16 -16 -16 -16 -16 -17 -17 -17 -17 -17 -17 -17 -17 -17
Wind_Speed
6 5 4 5 6 7 9 9 9 8 8 8 6 5 4 2 1 1 2 2 3 4 4 4 4 4 4 5 4 5 5 4 4 4 4 4 4 3 3 3 2 2 2 2
5 4 3 6 8 8 9 9 10 10 10 6 4 3 2 1 0 0 1 2 2 3 4 4 4 4 4 4 4 4 4 4 4 3 3 3 3 3 3 2 2 2 2 2
4 2 3 6 6 7 5 5 7 9 6 3 3 3 2 2 1 2 2 2 3 3 3 4 4 4 4 4 4 4 4 4 4 4 3 3 3 3 3 2 2 2 2 2
2 1 5 2 3 2 3 3 3 3 3 3 3 2 2 2 2 2 2 1 2 2 2 3 3 4 4 4 4 4 4 3 3 3 3 3 3 3 2 2 2 2 2 2
2 2 5 3 1 1 3 3 2 4 4 3 2 1 2 3 2 1 1 1 2 2 3 3 4 4 4 4 4 3 3 3 3 3 3 3 3 3 2 2 2 2 2 2
2 3 4 3 3 4 2 3 2 2 3 2 1 3 3 3 2 1 1 0 2 2 3 3 3 4 4 3 3 2 2 2 2 3 3 3 3 2 2 2 2 2 2 2
3 4 4 4 3 0 2 3 3 2 2 2 2 3 3 2 2 1 1 2 3 3 3 3 3 4 4 3 2 1 1 1 2 2 2 2 2 2 2 2 2 2 2 2
3 4 5 2 2 1 2 4 3 2 2 2 2 2 2 1 1 1 2 2 3 3 3 3 3 4 3 2 1 1 2 2 1 1 1 1 2 1 1 2 2 2 2 3
4 4 2 1 1 2 3 3 3 4 3 1 1 1 1 1 1 1 1 2 2 3 3 3 3 3 3 1 1 1 2 1 1 1 1 1 2 2 2 2 2 2 2 3
3 4 3 2 2 4 3 3 4 3 2 1 1 1 0 0 1 1 1 2 2 3 3 3 3 3 2 1 1 2 1 1 1 1 1 1 1 2 2 2 3 3 3 3
5 4 4 3 3 4 3 3 3 3 2 1 0 0 0 1 1 1 2 2 2 2 3 2 2 2 2 2 1 1 1 0 0 1 1 1 2 2 3 3 4 4 4 4
5 3 3 4 3 3 2 2 2 2 3 2 1 0 1 1 1 1 2 2 2 2 2 2 2 2 2 2 1 1 0 0 1 1 1 2 2 2 3 4 5 6 6 6
3 3 2 3 3 2 2 2 2 2 2 2 2 1 1 1 2 2 2 2 2 2 2 2 2 2 2 1 1 0 0 1 1 1 2 2 2 3 3 3 5 6 7 8
2 1 2 2 2 3 2 2 3 3 3 3 2 2 2 2 3 3 2 2 2 2 2 2 1 1 1 1 1 1 1 1 2 2 2 2 3 3 3 4 4 4 5 8
2 3 2 1 2 2 2 2 3 3 3 4 3 3 2 2 2 1 1 2 2 2 2 1 1 1 2 1 1 1 1 1 2 2 2 3 3 3 4 4 4 5 5 5
2 1 1 0 0 1 2 2 2 2 2 2 2 2 2 2 2 2 2 1 1 1 0 0 1 2 2 2 1 1 2 2 3 2 3 3 3 3 4 4 5 5 5 5
1 0 0 0 0 0 0 0 0 0 1 1 1 1 2 2 2 2 1 1 1 1 1 1 2 2 2 1 2 2 2 2 3 3 3 3 4 4 4 4 5 5 5 6
2 2 2 2 2 1 0 0 0 0 0 1 1 1 1 1 1 1 1 1 1 1 1 2 2 2 2 2 2 2 2 2 3 3 4 4 4 4 5 5 5 6 6 6
0 1 1 1 1 1 1 0 0 0 1 0 1 0 0 0 1 1 1 1 1 2 2 2 3 2 2 3 3 2 2 3 3 3 4 5 5 4 4 5 6 6 6 6
2 1 2 2 1 1 1 0 0 0 0 0 1 0 0 1 1 1 1 1 2 2 3 3 3 3 3 3 3 2 3 3 4 4 4 4 5 5 5 5 6 6 6 6
2 2 2 2 1 1 1 1 1 0 0 0 1 0 1 1 1 1 1 2 2 2 3 4 3 3 3 3 4 3 3 4 4 4 4 5 5 6 6 6 6 7 7 7
1 1 1 1 1 1 1 1 1 1 0 0 0 0 1 1 2 2 2 2 3 4 3 3 3 5 4 4 3 3 4 4 4 4 5 5 6 6 6 7 7 7 7 8
1 1 1 1 1 1 1 1 0 0 0 0 1 1 1 2 2 2 3 2 3 5 4 3 5 7 6 4 3 4 4 5 5 5 5 6 6 6 7 8 7 7 8 8
1 1 1 1 1 1 1 1 1 1 1 1 1 1 2 2 2 2 3 5 6 6 4 5 8 8 6 3 4 4 5 5 5 6 6 6 6 6 7 7 8 8 8 9
1 1 1 1 1 0 0 1 1 1 1 1 2 2 2 2 2 3 3 4 6 6 4 6 8 8 5 4 4 5 5 5 6 6 6 6 7 7 7 7 8 8 8 9
1 1 1 0 0 0 0 0 1 1 1 2 2 2 2 2 3 3 3 4 5 6 5 4 5 6 4 5 5 5 6 6 7 6 7 7 8 8 8 8 10 9 9 9
1 1 1 1 0 0 0 0 1 1 2 2 2 3 3 3 3 3 4 4 4 4 4 4 5 5 5 5 6 6 6 6 6 7 7 7 7 8 8 10 9 9 10 10
Wind_Direction
266 273 268 268 255 227 223 232 240 248 253 275 291 298 310 317 338 112 143 148 152 151 148 144 145 147 152 155 158 159 162 168 172 170 170 169 170 170 172 181 190 196 211 227
271 268 277 288 274 245 241 243 243 259 271 292 312 314 316 310 255 220 205 179 164 156 154 153 153 155 155 157 158 162 166 171 170 168 167 170 171 169 172 179 188 196 210 225
263 298 292 278 263 226 221 229 231 244 264 307 307 308 298 284 260 257 256 207 184 175 170 166 165 162 162 159 156 161 166 169 171 172 171 173 172 172 177 185 195 206 222 235
268 283 243 277 31 210 216 247 245 267 295 292 284 305 324 302 271 273 260 218 190 176 162 158 152 150 146 146 151 155 160 167 171 172 175 174 175 182 187 195 205 217 233 246
217 241 268 288 325 290 235 277 289 258 278 302 328 339 331 338 319 272 248 210 180 165 154 146 143 142 136 140 146 152 163 171 176 177 177 179 187 196 196 202 214 229 245 254
206 234 252 320 345 325 237 267 351 277 268 296 291 273 308 7 9 6 17 117 138 134 129 131 135 136 134 139 147 162 177 179 179 182 184 189 201 208 210 213 223 237 253 263
230 240 265 335 336 283 212 310 351 287 258 248 250 290 331 0 15 30 55 91 117 124 126 131 134 135 136 138 155 172 157 150 157 173 186 192 200 211 209 214 228 242 257 272
209 225 261 14 93 200 292 340 340 316 292 276 286 335 338 349 23 63 82 92 110 116 112 108 122 134 134 136 131 127 135 139 143 158 178 184 188 202 207 208 225 245 264 283
207 228 318 109 248 320 335 320 317 314 311 293 264 289 327 353 17 66 92 101 110 115 106 91 96 121 131 116 104 113 127 134 137 152 182 199 205 210 213 222 236 255 268 280
242 262 286 294 319 336 344 331 326 322 315 282 254 260 282 15 62 72 73 91 103 110 106 89 82 88 101 99 111 120 125 131 150 184 220 230 234 232 235 238 243 254 267 276
253 283 313 298 310 323 338 351 356 358 3 347 154 198 138 126 106 91 83 77 94 106 103 88 78 78 74 78 98 112 121 144 195 223 243 255 259 259 255 254 254 256 263 273
254 260 259 289 326 335 336 343 353 7 11 21 58 113 109 107 98 96 95 91 96 97 95 86 77 68 57 58 82 102 123 205 257 261 266 268 271 283 279 272 273 269 274 280
265 303 301 293 329 9 7 1 10 25 33 31 32 65 96 92 88 90 91 95 104 109 105 94 77 52 31 30 46 63 260 268 270 272 272 273 276 279 287 289 282 279 283 288
274 305 290 298 322 355 17 36 49 53 51 52 54 61 74 79 81 83 79 75 81 94 95 91 75 23 2 354 339 317 290 284 285 278 278 277 276 278 278 282 287 289 293 294
307 301 267 325 20 33 49 66 66 53 48 45 50 58 70 83 86 70 56 66 77 83 77 69 31 339 343 332 311 299 294 295 296 292 287 284 282 281 279 278 279 286 293 298
330 12 89 102 40 55 63 68 70 47 40 40 40 41 46 62 69 58 52 71 99 95 26 330 313 323 329 318 305 296 289 296 302 295 291 289 286 284 283 281 281 283 286 292
173 235 231 265 270 3 24 27 71 38 43 43 26 38 56 66 64 45 22 4 315 281 281 281 293 309 312 304 296 299 298 299 304 297 291 286 282 282 282 282 282 285 286 289
248 246 229 211 204 202 309 12 40 40 349 347 49 78 83 82 45 351 343 343 332 317 307 300 300 303 300 302 295 295 293 294 297 294 292 287 285 281 280 279 281 284 289 293
130 159 152 151 162 157 164 236 297 9 17 84 116 115 36 331 317 316 322 328 308 303 317 319 315 314 302 300 301 282 287 293 295 291 290 292 293 287 284 282 283 285 287 289
82 90 94 87 84 112 136 130 97 69 42 147 134 101 19 339 329 314 291 280 282 292 301 304 306 302 297 292 290 276 279 284 286 287 286 284 287 289 287 285 285 285 285 285
101 98 95 89 70 62 90 130 143 156 172 165 165 217 306 324 321 305 292 300 315 309 302 302 306 299 291 286 282 274 275 276 277 278 279 280 283 284 284 285 285 284 284 284
122 116 106 100 95 61 44 71 120 141 134 70 8 342 324 317 312 301 286 284 301 310 314 304 301 298 300 301 288 279 277 275 274 273 274 276 278 280 282 284 284 284 283 283
138 135 130 127 130 97 56 52 62 125 239 278 286 288 292 298 296 293 303 309 309 308 311 299 302 308 313 309 293 287 282 277 274 273 273 274 275 276 278 280 280 281 282 283
132 119 104 98 110 107 72 16 7 351 320 304 301 296 295 301 300 287 290 302 311 312 307 303 309 312 317 306 293 288 285 281 278 276 276 276 276 276 276 277 278 279 280 281
128 119 118 123 119 104 17 7 9 3 356 344 334 321 302 287 284 297 302 302 307 314 308 308 312 315 314 296 290 285 282 278 278 280 277 276 275 275 275 275 276 278 279 279
139 144 149 151 144 140 125 308 322 331 336 334 332 323 314 306 299 297 297 302 304 308 307 303 306 308 299 291 286 284 281 283 285 283 279 279 278 277 276 276 277 276 277 277
116 112 110 89 73 68 262 279 299 308 312 313 314 315 316 314 310 308 306 306 307 305 302 300 299 298 295 292 289 286 284 283 281 280 280 278 278 277 278 277 277 278 278 278
Height
1474 1475 1475 1474 1475 1476 1474 1467 1464 1460 1463 1463 1465 1467 1467 1467 1466 1466 1466 1467 1467 1468 1469 1470 1471 1473 1475 1476 1478 1479 1481 1482 1483 1484 1486 1486 1487 1488 1489 1490 1491 1491 1491 1491
1475 1474 1474 1475 1472 1473 1472 1471 1468 1466 1465 1466 1467 1467 1467 1466 1466 1466 1466 1466 1466 1467 1468 1469 1470 1471 1473 1475 1476 1478 1479 1480 1481 1482 1483 1483 1484 1485 1486 1487 1487 1488 1488 1487
1469 1474 1473 1469 1468 1470 1471 1470 1468 1465 1466 1467 1467 1467 1466 1466 1465 1465 1465 1465 1465 1465 1466 1467 1469 1470 1471 1473 1474 1476 1477 1478 1479 1479 1480 1481 1482 1482 1483 1484 1484 1484 1484 1484
1472 1474 1473 1465 1470 1469 1470 1469 1470 1469 1468 1467 1467 1466 1466 1465 1464 1464 1464 1464 1464 1464 1465 1467 1468 1469 1470 1471 1472 1474 1475 1476 1476 1477 1478 1478 1479 1480 1480 1481 1481 1481 1481 1481
1474 1469 1464 1466 1471 1472 1471 1468 1469 1468 1468 1467 1466 1465 1464 1463 1463 1463 1463 1463 1463 1463 1464 1465 1466 1467 1468 1470 1471 1472 1473 1473 1474 1475 1475 1476 1476 1477 1477 1478 1478 1478 1477 1477
1475 1469 1464 1466 1473 1472 1472 1466 1467 1467 1467 1467 1466 1463 1463 1463 1462 1461 1461 1461 1461 1462 1463 1463 1465 1466 1467 1468 1469 1470 1471 1471 1472 1472 1473 1473 1474 1474 1474 1475 1474 1474 1474 1474
1476 1472 1467 1473 1473 1472 1469 1466 1469 1468 1467 1467 1466 1465 1464 1462 1461 1460 1460 1460 1460 1461 1461 1462 1463 1464 1465 1466 1467 1468 1469 1469 1470 1470 1470 1471 1471 1471 1471 1471 1471 1471 1471 1470
1477 1475 1473 1474 1473 1473 1470 1469 1468 1468 1467 1466 1465 1463 1462 1461 1460 1459 1459 1459 1459 1459 1460 1461 1462 1463 1463 1464 1465 1466 1467 1467 1467 1468 1468 1468 1468 1468 1468 1468 1468 1467 1467 1467
1476 1474 1473 1473 1472 1471 1470 1469 1468 1467 1465 1464 1463 1462 1461 1460 1459 1459 1458 1458 1458 1459 1459 1460 1461 1461 1462 1463 1464 1464 1464 1465 1465 1466 1466 1466 1466 1466 1465 1465 1465 1465 1464 1463
1476 1473 1473 1472 1471 1470 1469 1468 1466 1465 1464 1462 1461 1460 1459 1459 1458 1458 1458 1458 1458 1458 1458 1459 1460 1460 1461 1461 1462 1462 1462 1463 1463 1463 1463 1463 1463 1463 1463 1462 1462 1462 1461 1460
1473 1472 1471 1469 1469 1468 1467 1466 1465 1463 1462 1461 1460 1458 1458 1458 1457 1457 1457 1457 1457 1457 1457 1458 1458 1459 1459 1460 1460 1460 1460 1461 1461 1461 1461 1461 1461 1460 1460 1460 1459 1459 1458 1457
1469 1470 1470 1468 1467 1467 1465 1464 1463 1462 1460 1459 1459 1458 1457 1457 1457 1457 1457 1457 1457 1457 1457 1457 1458 1458 1458 1459 1459 1459 1459 1459 1459 1459 1458 1458 1458 1458 1457 1457 1456 1455 1454 1454
1469 1468 1468 1466 1466 1465 1464 1463 1462 1461 1459 1458 1458 1457 1457 1456 1456 1456 1456 1456 1456 1456 1456 1456 1457 1457 1457 1457 1457 1457 1457 1457 1457 1456 1456 1456 1455 1454 1454 1453 1453 1452 1450 1449
1467 1466 1465 1465 1464 1463 1462 1461 1460 1459 1459 1458 1457 1457 1456 1456 1455 1455 1455 1455 1455 1455 1455 1455 1455 1456 1456 1456 1456 1455 1455 1455 1454 1454 1454 1453 1452 1451 1451 1449 1448 1447 1446 1445
1465 1465 1464 1463 1462 1461 1461 1460 1459 1458 1458 1458 1457 1457 1456 1455 1455 1455 1455 1455 1454 1454 1454 1454 1454 1454 1454 1454 1454 1453 1453 1452 1452 1451 1451 1450 1449 1448 1447 1446 1445 1443 1442 1441
1463 1462 1462 1461 1460 1460 1459 1459 1458 1458 1458 1457 1457 1456 1456 1456 1455 1455 1455 1454 1454 1453 1453 1453 1453 1453 1453 1452 1452 1451 1450 1450 1449 1448 1448 1447 1446 1445 1444 1442 1441 1439 1438 1436
1461 1460 1460 1459 1459 1458 1458 1458 1458 1457 1457 1456 1456 1456 1456 1455 1455 1454 1454 1454 1453 1453 1452 1452 1452 1451 1451 1450 1450 1449 1448 1447 1447 1446 1445 1444 1442 1441 1440 1438 1437 1435 1434 1432
1460 1459 1459 1458 1457 1457 1457 1457 1457 1457 1456 1456 1456 1455 1455 1454 1454 1453 1453 1452 1452 1451 1451 1450 1450 1449 1449 1448 1447 1446 1445 1444 1444 1443 1442 1440 1439 1437 1436 1435 1433 1431 1430 1428
1458 1458 1457 1457 1457 1457 1456 1456 1456 1456 1456 1455 1455 1454 1454 1453 1453 1452 1452 1451 1450 1449 1449 1449 1448 1447 1446 1446 1445 1444 1443 1442 1441 1440 1438 1437 1435 1434 1432 1431 1429 1427 1426 1424
1457 1456 1456 1456 1456 1456 1455 1455 1455 1455 1455 1455 1454 1454 1453 1452 1452 1451 1450 1450 1449 1448 1447 1447 1446 1445 1444 1443 1442 1441 1440 1439 1437 1436 1435 1433 1432 1430 1428 1427 1425 1423 1421 1419
1456 1456 1455 1455 1455 1455 1455 1455 1454 1454 1454 1454 1453 1453 1452 1451 1451 1450 1449 1448 1448 1447 1446 1445 1444 1443 1441 1440 1439 1438 1437 1435 1434 1432 1431 1429 1428 1426 1424 1423 1421 1419 1417 1415
1455 1455 1454 1454 1454 1454 1454 1454 1454 1454 1453 1453 1452 1452 1451 1450 1449 1448 1448 1447 1446 1445 1443 1442 1441 1440 1439 1438 1436 1435 1433 1432 1430 1429 1427 1425 1424 1422 1420 1418 1416 1414 1412 1410
1455 1454 1454 1454 1454 1453 1453 1453 1453 1453 1452 1452 1451 1450 1450 1449 1448 1447 1446 1445 1443 1442 1441 1440 1439 1437 1436 1434 1433 1431 1430 1428 1427 1425 1423 1421 1419 1418 1416 1413 1411 1409 1407 1404
1454 1454 1453 1453 1453 1453 1452 1452 1452 1452 1451 1451 1450 1449 1448 1447 1446 1445 1444 1443 1441 1440 1438 1437 1436 1434 1432 1431 1429 1427 1426 1424 1422 1420 1419 1417 1415 1413 1411 1408 1406 1404 1401 1399
1453 1453 1453 1452 1452 1452 1452 1451 1451 1451 1450 1450 1449 1448 1447 1446 1445 1443 1442 1440 1439 1437 1436 1434 1433 1431 1429 1427 1425 1424 1422 1420 1418 1416 1414 1412 1410 1407 1405 1403 1401 1398 1396 1393
1452 1452 1452 1451 1451 1451 1451 1450 1450 1449 1449 1448 1447 1446 1445 1444 1442 1441 1440 1438 1437 1435 1433 1431 1429 1427 1425 1424 1422 1420 1418 1416 1413 1411 1409 1407 1404 1402 1400 1397 1395 1393 1390 1387
1451 1451 1450 1450 1450 1450 1450 1449 1449 1448 1447 1446 1445 1444 1443 1442 1440 1439 1437 1436 1434 1432 1430 1428 1426 1424 1422 1420 1417 1415 1413 1411 1408 1406 1404 1401 1399 1397 1394 1392 1389 1387 1384 1382